EST,Max TemperatureF,Mean TemperatureF,Min TemperatureF,Max Dew PointF,MeanDew PointF,Min DewpointF,Max Humidity, Mean Humidity, Min Humidity, Max Sea Level PressureIn, Mean Sea Level PressureIn, Min Sea Level PressureIn, Max VisibilityMiles, Mean VisibilityMiles, Min VisibilityMiles, Max Wind SpeedMPH, Mean Wind SpeedMPH, Max Gust SpeedMPH,PrecipitationIn, CloudCover, Events, WindDirDegrees
2012-2-1,55,44,33,41,33,24,75,61,46,29.99,29.87,29.78,10,10,10,29,12,37,0.01,3,Rain,255
2012-2-2,38,33,28,28,26,17,92,78,64,30.19,30.04,29.97,10,10,5,15,6,20,0.00,6,,1
2012-2-3,36,28,19,19,12,7,68,50,32,30.37,30.30,30.18,10,10,10,18,10,24,0.00,2,,306
2012-2-4,39,32,25,24,17,7,78,59,40,30.25,30.17,30.11,10,10,10,18,9,24,0.00,2,,296
2012-2-5,33,25,17,12,7,4,65,47,28,30.16,30.11,30.07,10,10,10,13,6,16,0.00,0,,306
2012-2-6,47,35,23,22,18,12,68,50,31,30.06,29.93,29.86,10,10,10,26,15,38,0.00,0,,255
2012-2-7,42,35,27,25,21,14,66,56,45,30.21,30.03,29.87,10,10,10,20,9,24,0.00,3,,294
2012-2-8,34,25,16,14,8,3,74,51,28,30.30,30.20,30.06,10,10,10,13,6,16,0.00,3,,244
2012-2-9,43,35,27,14,11,8,55,41,27,30.11,30.03,29.99,10,10,10,17,11,24,0.00,1,,281
2012-2-10,46,37,28,27,17,12,70,50,30,30.10,30.00,29.88,10,10,10,22,9,29,0.00,1,,235
2012-2-11,38,31,23,27,23,12,92,70,48,29.86,29.70,29.54,10,7,2,21,8,28,0.01,7,Snow,353
2012-2-12,23,17,11,7,-1,-5,60,50,39,29.87,29.70,29.59,10,10,10,32,16,47,0.00,1,,295
2012-2-13,37,25,12,16,12,-1,74,55,35,29.97,29.87,29.79,10,9,4,26,12,37,T,4,Snow,248
2012-2-14,40,34,27,19,11,7,57,41,25,30.09,30.05,29.98,10,10,10,17,8,22,0.00,5,,235
2012-2-15,44,39,33,34,30,24,92,74,56,30.25,30.14,30.06,10,10,10,13,5,16,T,7,Rain,281
2012-2-16,43,36,29,34,30,25,100,78,55,30.28,30.16,30.03,10,7,2,15,7,20,0.15,5,Rain-Snow,234
2012-2-17,46,39,31,39,31,18,100,73,45,30.00,29.93,29.86,10,8,1,20,11,25,0.06,6,Rain,266
2012-2-18,42,36,30,25,21,17,72,55,38,29.98,29.92,29.82,10,10,9,18,11,26,0.00,3,,272
2012-2-19,41,34,27,27,17,13,78,55,32,30.05,30.01,29.97,10,10,10,17,6,22,0.00,1,,329
2012-2-20,38,30,22,14,9,4,68,47,26,30.30,30.12,29.98,10,10,10,23,10,31,0.00,0,,334
2012-2-21,40,31,21,34,20,11,75,55,34,30.32,30.12,29.82,10,10,7,18,9,28,T,3,Rain-Snow,225
2012-2-22,52,44,35,34,29,22,89,61,33,29.82,29.65,29.54,10,10,10,16,12,22,0.00,2,,231
2012-2-23,49,41,33,43,33,21,100,72,43,29.79,29.48,29.36,10,9,4,26,10,32,0.01,4,Rain,257
2012-2-24,36,34,31,36,31,20,100,76,52,29.78,29.55,29.22,10,4,0,22,6,28,0.67,7,Fog-Rain-Snow,72
2012-2-25,38,33,27,32,23,15,96,72,48,29.81,29.41,29.21,10,8,0,38,24,58,T,6,Fog-Snow,271
2012-2-26,36,29,21,14,4,-1,63,43,22,30.44,30.24,29.87,10,10,10,30,15,38,0.00,0,,281
2012-2-27,48,34,20,31,20,6,76,59,42,30.43,30.25,30.04,10,10,10,23,11,30,0.00,4,,218
2012-2-28,44,38,31,27,17,11,70,50,29,30.38,30.25,30.04,10,10,10,35,11,44,0.00,2,,311
2012-2-29,33,31,28,30,23,11,100,71,41,30.38,30.15,29.87,10,3,0,15,5,21,0.51,8,Fog-Snow,81